RYR65BP EIDW-EGBB

Flight info

Callsign RYR65BP
Flight time 0h 41m
Altitude 23000
Route DEXEN2J DEXEN Y124 DOLOP
Aircraft B38M/M-SADE3FGILRWY/SB1

Departure

Time 2026-05-06 19:12
Airport Dublin Airport (EIDW)

Arrival

Time 2026-05-06 19:53
Airport Birmingham Airport (EGBB)
Time Latitude Longitude Altitude Speed Heading
2026-05-06 18:41 53.43089 -6.24633 213 ft 0 kts 185°
2026-05-06 18:57 53.43090 -6.24633 213 ft 2 kts 185°
2026-05-06 18:58 53.43115 -6.24630 213 ft 4 kts 185°
2026-05-06 18:58 53.43142 -6.24626 213 ft 4 kts 185°
2026-05-06 18:58 53.43164 -6.24622 217 ft 4 kts 192°
2026-05-06 18:58 53.43186 -6.24604 219 ft 4 kts 232°
2026-05-06 18:59 53.43193 -6.24567 213 ft 3 kts 275°
2026-05-06 18:59 53.43191 -6.24529 213 ft 1 kts 275°
2026-05-06 19:02 53.43191 -6.24530 213 ft 1 kts 275°
2026-05-06 19:02 53.43194 -6.24592 213 ft 11 kts 275°
2026-05-06 19:02 53.43203 -6.24751 218 ft 15 kts 275°
2026-05-06 19:03 53.43214 -6.24946 219 ft 18 kts 275°
2026-05-06 19:03 53.43220 -6.25068 218 ft 8 kts 275°
2026-05-06 19:03 53.43227 -6.25195 213 ft 16 kts 275°
2026-05-06 19:03 53.43205 -6.25398 215 ft 17 kts 246°
2026-05-06 19:04 53.43143 -6.25496 213 ft 11 kts 160°
2026-05-06 19:04 53.43064 -6.25440 216 ft 13 kts 157°
2026-05-06 19:04 53.42972 -6.25371 214 ft 16 kts 156°
2026-05-06 19:04 53.42865 -6.25292 217 ft 18 kts 157°
2026-05-06 19:05 53.42758 -6.25313 215 ft 17 kts 225°
2026-05-06 19:05 53.42673 -6.25458 214 ft 18 kts 225°
2026-05-06 19:05 53.42577 -6.25625 213 ft 21 kts 225°
2026-05-06 19:05 53.42468 -6.25809 215 ft 23 kts 225°
2026-05-06 19:06 53.42352 -6.26005 218 ft 24 kts 226°
2026-05-06 19:06 53.42269 -6.26242 216 ft 25 kts 263°
2026-05-06 19:06 53.42280 -6.26540 221 ft 27 kts 275°
2026-05-06 19:06 53.42297 -6.26859 213 ft 28 kts 275°
2026-05-06 19:07 53.42315 -6.27199 215 ft 30 kts 275°
2026-05-06 19:07 53.42326 -6.27392 213 ft 20 kts 275°
2026-05-06 19:07 53.42345 -6.27727 213 ft 23 kts 275°
2026-05-06 19:07 53.42360 -6.28006 213 ft 25 kts 275°
2026-05-06 19:08 53.42377 -6.28307 217 ft 27 kts 276°
2026-05-06 19:08 53.42394 -6.28629 213 ft 29 kts 275°
2026-05-06 19:08 53.42408 -6.28875 213 ft 17 kts 275°
2026-05-06 19:08 53.42391 -6.29040 215 ft 14 kts 230°
2026-05-06 19:09 53.42309 -6.29075 217 ft 9 kts 174°
2026-05-06 19:09 53.42260 -6.29062 212 ft 5 kts 160°
2026-05-06 19:09 53.42243 -6.29011 214 ft 6 kts 101°
2026-05-06 19:09 53.42241 -6.28978 212 ft 0 kts 94°
2026-05-06 19:11 53.42239 -6.28948 214 ft 18 kts 95°
2026-05-06 19:11 53.42202 -6.28270 215 ft 97 kts 95°
2026-05-06 19:11 53.42119 -6.26767 219 ft 159 kts 95°
2026-05-06 19:11 53.42007 -6.24783 734 ft 176 kts 96°
2026-05-06 19:12 53.41903 -6.22719 1632 ft 174 kts 97°
2026-05-06 19:12 53.41784 -6.20630 2425 ft 185 kts 97°
2026-05-06 19:12 53.41662 -6.18475 3335 ft 191 kts 97°
2026-05-06 19:12 53.41533 -6.16163 4024 ft 209 kts 96°
2026-05-06 19:13 53.41394 -6.13637 4783 ft 224 kts 96°
2026-05-06 19:13 53.41245 -6.10958 5569 ft 237 kts 96°
2026-05-06 19:13 53.41085 -6.08099 6184 ft 256 kts 96°
2026-05-06 19:13 53.40903 -6.05019 6751 ft 275 kts 99°
2026-05-06 19:14 53.40373 -6.01881 7497 ft 281 kts 117°
2026-05-06 19:14 53.39281 -5.99167 8290 ft 286 kts 134°
2026-05-06 19:14 53.37913 -5.96718 9029 ft 287 kts 134°
2026-05-06 19:14 53.36557 -5.94243 9963 ft 291 kts 134°
2026-05-06 19:15 53.35167 -5.91680 10542 ft 306 kts 134°
2026-05-06 19:15 53.33702 -5.88962 11083 ft 320 kts 134°
2026-05-06 19:15 53.32318 -5.85983 11716 ft 331 kts 118°
2026-05-06 19:15 53.31621 -5.82310 12594 ft 336 kts 101°
2026-05-06 19:16 53.31177 -5.78431 13345 ft 343 kts 102°
2026-05-06 19:16 53.30734 -5.74491 14121 ft 347 kts 102°
2026-05-06 19:16 53.30292 -5.70495 14843 ft 351 kts 101°
2026-05-06 19:16 53.29849 -5.66455 15592 ft 355 kts 101°
2026-05-06 19:17 53.29408 -5.62376 16335 ft 359 kts 99°
2026-05-06 19:17 53.29266 -5.58193 17056 ft 363 kts 92°
2026-05-06 19:17 53.29211 -5.55390 17524 ft 366 kts 92°
2026-05-06 19:17 53.29101 -5.51116 18232 ft 369 kts 93°
2026-05-06 19:18 53.28974 -5.46811 18837 ft 373 kts 93°
2026-05-06 19:18 53.28835 -5.42481 19451 ft 375 kts 93°
2026-05-06 19:18 53.28690 -5.38115 20062 ft 377 kts 93°
2026-05-06 19:18 53.28540 -5.33718 20658 ft 380 kts 93°
2026-05-06 19:19 53.28387 -5.29297 21243 ft 382 kts 93°
2026-05-06 19:19 53.28231 -5.24862 21924 ft 382 kts 92°
2026-05-06 19:19 53.28074 -5.20445 22665 ft 380 kts 92°
2026-05-06 19:19 53.27916 -5.16027 22990 ft 380 kts 92°
2026-05-06 19:20 53.27756 -5.11644 23015 ft 377 kts 92°
2026-05-06 19:20 53.27596 -5.07266 22994 ft 377 kts 92°
2026-05-06 19:20 53.27435 -5.02916 22999 ft 377 kts 92°
2026-05-06 19:20 53.27272 -4.98544 22998 ft 377 kts 92°
2026-05-06 19:21 53.27107 -4.94179 22998 ft 377 kts 92°
2026-05-06 19:21 53.26941 -4.89812 23001 ft 377 kts 93°
2026-05-06 19:21 53.26774 -4.85450 23001 ft 377 kts 93°
2026-05-06 19:21 53.26604 -4.81085 23001 ft 377 kts 93°
2026-05-06 19:22 53.26433 -4.76722 23001 ft 377 kts 93°
2026-05-06 19:22 53.26260 -4.72351 23001 ft 377 kts 93°
2026-05-06 19:22 53.26086 -4.67986 22993 ft 377 kts 93°
2026-05-06 19:22 53.25910 -4.63621 22993 ft 377 kts 93°
2026-05-06 19:23 53.25733 -4.59268 22996 ft 377 kts 93°
2026-05-06 19:23 53.25554 -4.54902 22994 ft 377 kts 93°
2026-05-06 19:23 53.25373 -4.50526 22992 ft 377 kts 93°
2026-05-06 19:23 53.25191 -4.46158 22994 ft 377 kts 93°
2026-05-06 19:24 53.25007 -4.41786 22994 ft 377 kts 93°
2026-05-06 19:24 53.24821 -4.37423 22993 ft 377 kts 93°
2026-05-06 19:24 53.24634 -4.33050 22995 ft 377 kts 93°
2026-05-06 19:24 53.24447 -4.28734 23016 ft 377 kts 93°
2026-05-06 19:25 53.24254 -4.24312 23018 ft 377 kts 93°
2026-05-06 19:25 53.24065 -4.20014 23014 ft 377 kts 93°
2026-05-06 19:25 53.23872 -4.15646 23015 ft 377 kts 93°
2026-05-06 19:25 53.23676 -4.11279 23013 ft 377 kts 94°
2026-05-06 19:26 53.23479 -4.06909 23017 ft 377 kts 94°
2026-05-06 19:26 53.23281 -4.02541 23013 ft 378 kts 94°
2026-05-06 19:26 53.23081 -3.98179 23014 ft 377 kts 94°
2026-05-06 19:26 53.22879 -3.93813 23010 ft 377 kts 94°
2026-05-06 19:27 53.22676 -3.89439 23005 ft 377 kts 94°
2026-05-06 19:27 53.22471 -3.85076 23006 ft 377 kts 94°
2026-05-06 19:27 53.22265 -3.80722 23010 ft 377 kts 94°
2026-05-06 19:27 53.22058 -3.76366 23008 ft 377 kts 94°
2026-05-06 19:28 53.21848 -3.72000 23007 ft 377 kts 94°
2026-05-06 19:28 53.21637 -3.67644 23005 ft 377 kts 94°
2026-05-06 19:28 53.21432 -3.63371 22984 ft 363 kts 93°
2026-05-06 19:28 53.21253 -3.59223 22810 ft 354 kts 93°
2026-05-06 19:29 53.21075 -3.55164 22677 ft 350 kts 93°
2026-05-06 19:29 53.20895 -3.51109 22530 ft 350 kts 94°
2026-05-06 19:29 53.20713 -3.47066 22378 ft 350 kts 94°
2026-05-06 19:29 53.20531 -3.43024 22234 ft 349 kts 94°
2026-05-06 19:30 53.20347 -3.38984 22074 ft 348 kts 94°
2026-05-06 19:30 53.20163 -3.34977 21933 ft 347 kts 94°
2026-05-06 19:30 53.19977 -3.30972 21792 ft 346 kts 94°
2026-05-06 19:30 53.19792 -3.26980 21640 ft 345 kts 94°
2026-05-06 19:31 53.19605 -3.22985 21499 ft 345 kts 94°
2026-05-06 19:31 53.19142 -3.19099 21305 ft 342 kts 113°
2026-05-06 19:31 53.16741 -3.12271 21042 ft 341 kts 123°
2026-05-06 19:32 53.15386 -3.09023 20500 ft 345 kts 127°
2026-05-06 19:32 53.13971 -3.05726 19804 ft 354 kts 126°
2026-05-06 19:32 53.12529 -3.02340 19092 ft 363 kts 126°
2026-05-06 19:32 53.11055 -2.98864 18392 ft 370 kts 126°
2026-05-06 19:33 53.09579 -2.95380 17754 ft 367 kts 126°
2026-05-06 19:33 53.08124 -2.91948 17327 ft 359 kts 126°
2026-05-06 19:33 53.06704 -2.88601 16952 ft 350 kts 126°
2026-05-06 19:33 53.05319 -2.85341 16594 ft 341 kts 126°
2026-05-06 19:34 53.03966 -2.82161 16247 ft 333 kts 126°
2026-05-06 19:34 53.02643 -2.79056 15913 ft 325 kts 126°
2026-05-06 19:34 53.01350 -2.76023 15583 ft 318 kts 126°
2026-05-06 19:34 53.00090 -2.73071 15266 ft 311 kts 126°
2026-05-06 19:35 52.98863 -2.70201 14947 ft 305 kts 126°
2026-05-06 19:35 52.97635 -2.67331 14614 ft 299 kts 126°
2026-05-06 19:35 52.96426 -2.64508 14318 ft 302 kts 126°
2026-05-06 19:35 52.95218 -2.61692 14027 ft 307 kts 126°
2026-05-06 19:36 52.93959 -2.58762 13675 ft 310 kts 126°
2026-05-06 19:36 52.92705 -2.55844 13317 ft 310 kts 126°
2026-05-06 19:36 52.91454 -2.52936 12977 ft 310 kts 126°
2026-05-06 19:36 52.90224 -2.50081 12658 ft 307 kts 126°
2026-05-06 19:37 52.88920 -2.47301 12329 ft 304 kts 134°
2026-05-06 19:37 52.87371 -2.44941 12014 ft 302 kts 140°
2026-05-06 19:37 52.85785 -2.42687 11697 ft 299 kts 140°
2026-05-06 19:37 52.84209 -2.40453 11403 ft 297 kts 140°
2026-05-06 19:38 52.82654 -2.38250 11115 ft 294 kts 140°
2026-05-06 19:38 52.81108 -2.36062 10854 ft 290 kts 140°
2026-05-06 19:38 52.79591 -2.33919 10634 ft 284 kts 140°
2026-05-06 19:38 52.78096 -2.31808 10317 ft 284 kts 140°
2026-05-06 19:39 52.76597 -2.29692 9975 ft 284 kts 140°
2026-05-06 19:39 52.75088 -2.27572 9585 ft 285 kts 140°
2026-05-06 19:39 52.73580 -2.25455 9246 ft 284 kts 140°
2026-05-06 19:39 52.72081 -2.23359 8934 ft 281 kts 140°
2026-05-06 19:40 52.70593 -2.21280 8633 ft 279 kts 140°
2026-05-06 19:40 52.69118 -2.19218 8336 ft 277 kts 140°
2026-05-06 19:40 52.67655 -2.17173 8037 ft 275 kts 140°
2026-05-06 19:40 52.66194 -2.15131 7742 ft 274 kts 140°
2026-05-06 19:41 52.64748 -2.13110 7447 ft 273 kts 140°
2026-05-06 19:41 52.63307 -2.11095 7165 ft 271 kts 140°
2026-05-06 19:41 52.61874 -2.09089 6859 ft 270 kts 140°
2026-05-06 19:41 52.60441 -2.07113 6571 ft 268 kts 143°
2026-05-06 19:42 52.58948 -2.05306 6331 ft 266 kts 145°
2026-05-06 19:42 52.57464 -2.03559 6246 ft 257 kts 145°
2026-05-06 19:42 52.56031 -2.01876 6163 ft 251 kts 145°
2026-05-06 19:42 52.54620 -2.00216 6095 ft 249 kts 145°
2026-05-06 19:43 52.53214 -1.98574 6038 ft 248 kts 145°
2026-05-06 19:43 52.51794 -1.96964 5995 ft 249 kts 145°
2026-05-06 19:43 52.50383 -1.95369 5997 ft 249 kts 145°
2026-05-06 19:43 52.48937 -1.93722 5998 ft 250 kts 145°
2026-05-06 19:44 52.47503 -1.92086 6001 ft 251 kts 145°
2026-05-06 19:44 52.46073 -1.90455 5998 ft 251 kts 145°
2026-05-06 19:44 52.44647 -1.88832 6002 ft 251 kts 145°
2026-05-06 19:44 52.43219 -1.87214 6024 ft 251 kts 145°
2026-05-06 19:45 52.41777 -1.85581 6022 ft 250 kts 145°
2026-05-06 19:45 52.40378 -1.83995 5976 ft 240 kts 145°
2026-05-06 19:45 52.39020 -1.82457 5767 ft 237 kts 145°
2026-05-06 19:45 52.37670 -1.80921 5497 ft 236 kts 145°
2026-05-06 19:46 52.36323 -1.79392 5221 ft 235 kts 145°
2026-05-06 19:46 52.34989 -1.77874 4964 ft 233 kts 145°
2026-05-06 19:46 52.33660 -1.76361 4684 ft 232 kts 145°
2026-05-06 19:46 52.32352 -1.74876 4410 ft 231 kts 145°
2026-05-06 19:47 52.31014 -1.73371 4131 ft 230 kts 145°
2026-05-06 19:47 52.29694 -1.71900 3870 ft 229 kts 145°
2026-05-06 19:47 52.28406 -1.70404 3655 ft 224 kts 135°
2026-05-06 19:47 52.27646 -1.68343 3540 ft 210 kts 99°
2026-05-06 19:48 52.27738 -1.66080 3518 ft 192 kts 65°
2026-05-06 19:48 52.28372 -1.64221 3512 ft 186 kts 56°
2026-05-06 19:48 52.29073 -1.62450 3510 ft 185 kts 54°
2026-05-06 19:48 52.29991 -1.61070 3445 ft 179 kts 21°
2026-05-06 19:49 52.31211 -1.60750 3403 ft 178 kts
2026-05-06 19:49 52.32452 -1.60876 3267 ft 180 kts 347°
2026-05-06 19:49 52.33608 -1.61684 3024 ft 182 kts 330°
2026-05-06 19:49 52.34660 -1.62861 2795 ft 184 kts 327°
2026-05-06 19:50 52.35708 -1.64066 2533 ft 184 kts 328°
2026-05-06 19:50 52.36759 -1.65235 2285 ft 181 kts 329°
2026-05-06 19:50 52.37790 -1.66377 2042 ft 177 kts 329°
2026-05-06 19:50 52.38786 -1.67482 1814 ft 166 kts 329°
2026-05-06 19:51 52.39726 -1.68524 1587 ft 157 kts 330°
2026-05-06 19:51 52.40612 -1.69506 1406 ft 152 kts 330°
2026-05-06 19:51 52.41485 -1.70475 1141 ft 150 kts 330°
2026-05-06 19:51 52.42345 -1.71428 925 ft 149 kts 328°
2026-05-06 19:52 52.43197 -1.72390 731 ft 150 kts 329°
2026-05-06 19:52 52.44070 -1.73348 512 ft 151 kts 329°
2026-05-06 19:52 52.44929 -1.74301 334 ft 144 kts 329°
2026-05-06 19:52 52.45651 -1.75094 324 ft 99 kts 326°
2026-05-06 19:53 52.46101 -1.75596 312 ft 30 kts 326°
2026-05-06 19:53 52.46189 -1.75529 310 ft 18 kts 56°
2026-05-06 19:53 52.46205 -1.75388 305 ft 14 kts 131°
2026-05-06 19:53 52.46124 -1.75294 306 ft 15 kts 145°
2026-05-06 19:54 52.46032 -1.75191 309 ft 17 kts 146°
2026-05-06 19:54 52.45930 -1.75078 310 ft 18 kts 146°
2026-05-06 19:54 52.45821 -1.74957 310 ft 19 kts 146°
2026-05-06 19:54 52.45708 -1.74833 315 ft 19 kts 146°
2026-05-06 19:55 52.45603 -1.74715 320 ft 17 kts 146°
2026-05-06 19:55 52.45507 -1.74609 325 ft 17 kts 146°
2026-05-06 19:55 52.45437 -1.74451 324 ft 18 kts 117°
2026-05-06 19:55 52.45378 -1.74255 324 ft 21 kts 116°
2026-05-06 19:56 52.45313 -1.74042 324 ft 17 kts 116°
2026-05-06 19:56 52.45341 -1.73909 324 ft 13 kts 56°
2026-05-06 19:56 52.45387 -1.73800 324 ft 10 kts 56°
2026-05-06 19:56 52.45391 -1.73753 324 ft 4 kts 125°
2026-05-06 19:57 52.45364 -1.73718 326 ft 6 kts 147°
2026-05-06 19:57 52.45351 -1.73703 325 ft 0 kts 147°
2026-05-06 19:57 52.45348 -1.73700 325 ft 0 kts 147°